Left ArrowRight Arrow

Hourly Observations for October 10, 2015

Temp ( °F °C ) Dew Point ( °F °C ) Humidity (%) Winds ( mph kmh ) Pressure ( in mb ) Visibility ( mi km ) Precip ( " mm )
12:53 am 00:53 Mostly Clear 80 26.7 71 21.7 74 74 ENE 5 7 30.01 1016 10 16 0.00 0.00
1:53 am 01:53 Partly Cloudy 80 26.7 70 21.1 71 71 NNE 7 11 29.99 1016 10 16 0.00 0.00
2:53 am 02:53 Partly Cloudy 81 27.2 69 20.6 67 67 NNE 10 17 29.98 1015 10 16 0.00 0.00
3:53 am 03:53 Clear 80 26.7 70 21.1 71 71 NNE 9 15 29.97 1015 10 16 0.00 0.00
4:53 am 04:53 Clear 80 26.7 69 20.6 69 69 NNE 13 20 29.96 1015 10 16 0.00 0.00
5:53 am 05:53 Clear 79 26.1 68 20 69 69 N 9 15 29.97 1015 10 16 0.00 0.00
6:53 am 06:53 Sunny 79 26.1 68 20 69 69 N 6 9 29.98 1015 10 16 0.00 0.00
7:53 am 07:53 Sunny 84 28.9 68 20 59 59 ENE 7 11 29.98 1015 10 16 0.00 0.00
8:53 am 08:53 Sunny 86 30 67 19.4 53 53 SE 7 11 29.99 1016 10 16 0.00 0.00
9:53 am 09:53 Sunny 87 30.6 72 22.2 61 61 S 10 17 30.00 1016 10 16 0.00 0.00
10:53 am 10:53 Mostly Sunny 88 31.1 72 22.2 59 59 S 16 26 29.99 1016 10 16 0.00 0.00
11:53 am 11:53 Sunny 88 31.1 73 22.8 61 61 S 13 20 29.97 1015 10 16 0.00 0.00
12:53 pm 12:53 Mostly Sunny 87 30.6 73 22.8 63 63 S 12 19 29.95 1014 10 16 0.00 0.00
1:53 pm 13:53 Partly Cloudy 89 31.7 74 23.3 61 61 SSW 12 19 29.94 1014 10 16 0.00 0.00
2:53 pm 14:53 Partly Cloudy 88 31.1 73 22.8 61 61 S 10 17 29.92 1013 10 16 0.00 0.00
3:53 pm 15:53 Mostly Cloudy 86 30 72 22.2 63 63 SSW 9 15 29.93 1014 10 16 0.00 0.00
4:53 pm 16:53 Mostly Cloudy 86 30 73 22.8 65 65 SSE 10 17 29.94 1014 10 16 0.00 0.00
5:53 pm 17:53 Cloudy 85 29.4 73 22.8 68 68 S 9 15 29.95 1014 10 16 0.00 0.00
6:53 pm 18:53 Cloudy 84 28.9 73 22.8 70 70 S 7 11 29.96 1015 10 16 0.00 0.00
7:53 pm 19:53 Mostly Cloudy 84 28.9 73 22.8 70 70 S 5 7 29.98 1015 10 16 0.00 0.00
8:53 pm 20:53 Partly Cloudy 84 28.9 74 23.3 72 72 SSW 5 7 30.00 1016 10 16 0.00 0.00
9:53 pm 21:53 Partly Cloudy 83 28.3 75 23.9 77 77 SSW 3 6 30.02 1017 10 16 0.00 0.00
10:53 pm 22:53 Clear 83 28.3 73 22.8 72 72 Calm 30.02 1017 10 16 0.00 0.00
11:53 pm 23:53 Clear 82 27.8 73 22.8 74 74 NE 5 7 30.01 1016 10 16 0.00 0.00

Powered by Vaisala Xweather